This demonstration page uses our WeatherBlox Daily Observations layout. Learn more.

Hourly Observations for June 28, 2019

Temp ( °F °C ) Dew Point ( °F °C ) Humidity (%) Winds ( mph kmh ) Pressure ( in mb ) Visibility ( mi km ) Precip ( " mm )
12:15 am 00:15 Clear 74 23.6 69 20.5 83 83 SW 3 6 29.85 1011 10 16.09344 0 0
12:35 am 00:35 Clear 73 22.8 69 20.5 87 87 Calm 29.85 1011 10 16.09344 0 0
12:55 am 00:55 Clear 71 21.9 69 20.7 93 93 Calm 29.88 1012 10 16.09344 0 0
1:15 am 01:15 Clear 71 21.5 68 20.1 92 92 Calm 29.88 1012 10 16.09344 0 0
1:35 am 01:35 Clear 70 21 68 20.1 95 95 SSE 5 7 29.88 1012 10 16.09344 0 0
1:55 am 01:55 Clear 70 21.2 67 19.6 91 91 Calm 29.88 1012 10 16.09344 0 0
2:15 am 02:15 Clear 69 20.6 68 19.9 96 96 SW 5 7 29.88 1012 10 16.09344 0 0
2:35 am 02:35 Clear 72 22 67 19.6 86 86 SW 5 7 29.88 1012 10 16.09344 0 0
2:55 am 02:55 Clear 71 21.9 67 19.7 87 87 SSW 6 9 29.88 1012 10 16.09344 0 0
3:15 am 03:15 Clear 72 22.2 67 19.6 85 85 SSW 8 13 29.88 1012 10 16.09344 0 0
3:35 am 03:35 Clear 70 21.2 66 19.1 88 88 SSW 5 7 29.88 1012 10 16.09344 0 0
3:55 am 03:55 Clear 69 20.7 66 18.9 89 89 Calm 29.88 1012 10 16.09344 0 0
4:15 am 04:15 Clear 69 20.5 65 18.2 87 87 SW 3 6 29.88 1012 10 16.09344 0 0
4:35 am 04:35 Clear 69 20.3 64 17.8 86 86 SSW 3 6 29.88 1012 10 16.09344 0 0
4:55 am 04:55 Clear 68 20.1 64 17.5 85 85 SW 3 6 29.88 1012 10 16.09344 0 0
5:15 am 05:15 Clear 68 19.8 62 16.9 83 83 SW 6 9 29.88 1012 10 16.09344 0 0
5:35 am 05:35 Clear 68 19.8 62 16.6 82 82 SW 7 11 29.91 1013 10 16.09344 0 0
5:55 am 05:55 Clear 67 19.7 61 16.3 81 81 SSW 5 7 29.91 1013 10 16.09344 0 0
6:15 am 06:15 Sunny 67 19.4 61 15.9 80 80 SW 5 7 29.94 1014 10 16.09344 0 0
6:35 am 06:35 Sunny 68 20 60 15.8 77 77 SSW 6 9 29.91 1013 10 16.09344 0 0
6:55 am 06:55 Sunny 67 19.2 61 16 82 82 S 6 9 29.94 1014 10 16.09344 0 0
7:15 am 07:15 Sunny 68 20 61 16 78 78 S 5 7 29.91 1013 10 16.09344 0 0
7:35 am 07:35 Sunny 69 20.6 61 16.2 76 76 S 7 11 29.91 1013 10 16.09344 0 0
7:55 am 07:55 Sunny 71 21.8 61 15.9 69 69 SSW 8 13 29.91 1013 10 16.09344 0 0
8:15 am 08:15 Sunny 74 23.1 60 15.7 63 63 SSW 7 11 29.88 1012 10 16.09344 0 0
8:35 am 08:35 Sunny 75 24.1 61 16.2 61 61 SSW 6 9 29.88 1012 10 16.09344 0 0
8:55 am 08:55 Sunny 77 25.1 62 16.9 60 60 SSW 6 9 29.88 1012 10 16.09344 0 0
9:15 am 09:15 Sunny 79 26.1 62 16.7 56 56 SW 8 13 29.88 1012 10 16.09344 0 0
9:35 am 09:35 Sunny 81 27 65 18.1 58 58 SSW 8 13 29.91 1013 10 16.09344 0 0
9:55 am 09:55 Sunny 82 27.6 65 18.3 57 57 SW 9 15 29.85 1011 10 16.09344 0 0
10:15 am 10:15 Sunny 83 28.5 61 16.2 47 47 SSW 9 15 29.85 1011 10 16.09344 0 0
10:35 am 10:35 Sunny 84 29.1 62 16.8 47 47 S 7 11 29.88 1012 10 16.09344 0 0
10:55 am 10:55 Sunny 85 29.5 64 17.5 48 48 SSW 8 13 29.88 1012 10 16.09344 0 0
11:15 am 11:15 Sunny 86 30.1 64 17.9 48 48 SSW 8 13 29.88 1012 10 16.09344 0 0
11:35 am 11:35 Sunny 87 30.5 62 16.9 44 44 S 12 19 29.88 1012 10 16.09344 0 0
11:55 am 11:55 Sunny 88 31 63 17.1 43 43 S 9 15 29.85 1011 10 16.09344 0 0
12:15 pm 12:15 Sunny 88 31.2 64 17.8 45 45 SSW 9 15 29.85 1011 10 16.09344 0 0
12:35 pm 12:35 Sunny 89 31.6 64 17.9 44 44 S 9 15 29.85 1011 10 16.09344 0 0
12:55 pm 12:55 Sunny 90 32.1 64 17.9 43 43 S 7 11 29.85 1011 10 16.09344 0 0
1:15 pm 13:15 Sunny 90 32.1 64 17.8 42 42 S 10 17 29.85 1011 10 16.09344 0 0
1:35 pm 13:35 Sunny 91 33 63 17.3 39 39 S 7 11 29.85 1011 10 16.09344 0 0
1:55 pm 13:55 Sunny 92 33.1 64 17.8 40 40 SSE 7 11 29.85 1011 10 16.09344 0 0
2:15 pm 14:15 Sunny 93 33.7 64 18 39 39 S 6 9 29.85 1011 10 16.09344 0 0
2:35 pm 14:35 Sunny 92 33.6 66 19 42 42 SSE 8 13 29.85 1011 10 16.09344 0 0
2:55 pm 14:55 Sunny 93 34 66 19 41 41 S 8 13 29.85 1011 10 16.09344 0 0
3:15 pm 15:15 Sunny 94 34.5 67 19.4 41 41 SSE 9 15 29.85 1011 10 16.09344 0 0
3:35 pm 15:35 Sunny 94 34.6 67 19.2 40 40 SSE 8 13 29.85 1011 10 16.09344 0 0
3:55 pm 15:55 Sunny 95 34.8 67 19.3 40 40 S 8 13 29.8 1009 10 16.09344 0 0
4:15 pm 16:15 Sunny 95 35.2 66 18.8 38 38 SSE 10 17 29.8 1009 10 16.09344 0 0
4:35 pm 16:35 Sunny 95 35.1 66 18.9 38 38 SSE 10 17 29.8 1009 10 16.09344 0 0
4:55 pm 16:55 Sunny 96 35.3 65 18.6 37 37 SSE 9 15 29.8 1009 10 16.09344 0 0
5:15 pm 17:15 Sunny 96 35.3 64 17.8 35 35 SSE 13 20 29.8 1009 10 16.09344 0 0
5:35 pm 17:35 Sunny 96 35.3 65 18.1 36 36 SSE 12 19 29.8 1009 10 16.09344 0 0
5:55 pm 17:55 Sunny 95 35.2 64 18 36 36 S 10 17 29.8 1009 10 16.09344 0 0
6:15 pm 18:15 Sunny 95 35 65 18.3 37 37 S 9 15 29.8 1009 10 16.09344 0 0
6:35 pm 18:35 Sunny 94 34.7 65 18.6 39 39 SSE 7 11 29.8 1009 10 16.09344 0 0
6:55 pm 18:55 Sunny 94 34.4 66 18.9 40 40 SSE 7 11 29.83 1010 10 16.09344 0 0
7:15 pm 19:15 Sunny 93 33.9 67 19.4 42 42 SSE 6 9 29.83 1010 10 16.09344 0 0
7:35 pm 19:35 Sunny 92 33.1 67 19.7 45 45 S 5 7 29.83 1010 10 16.09344 0 0
7:55 pm 19:55 Sunny 90 32.2 69 20.6 50 50 SSE 5 7 29.83 1010 10 16.09344 0 0
8:15 pm 20:15 Sunny 88 31.3 69 20.3 52 52 SSE 6 9 29.83 1010 10 16.09344 0 0
8:35 pm 20:35 Sunny 87 30.6 68 20.1 53 53 SSE 5 7 29.83 1010 10 16.09344 0 0
8:55 pm 20:55 Sunny 84 28.7 70 20.9 63 63 SE 6 9 29.85 1011 10 16.09344 0 0
9:15 pm 21:15 Clear 82 27.6 69 20.8 67 67 SE 6 9 29.85 1011 10 16.09344 0 0
9:35 pm 21:35 Clear 80 26.5 70 21.2 73 73 SE 6 9 29.88 1012 10 16.09344 0 0
9:55 pm 21:55 Clear 79 26.1 69 20.4 71 71 SE 6 9 29.91 1013 10 16.09344 0 0
10:15 pm 22:15 Clear 78 25.6 69 20.3 73 73 SE 6 9 29.91 1013 10 16.09344 0 0
10:35 pm 22:35 Clear 77 25.1 68 20 73 73 SSE 6 9 29.91 1013 7 11.265408 0 0
10:55 pm 22:55 Clear 77 25.1 67 19.7 72 72 S 3 6 29.91 1013 10 16.09344 0 0
11:15 pm 23:15 Clear 76 24.5 67 19.5 74 74 SSE 5 7 29.91 1013 10 16.09344 0 0
11:35 pm 23:35 Clear 74 23.5 67 19.5 78 78 SE 3 6 29.91 1013 10 16.09344 0 0
11:55 pm 23:55 Clear 74 23.5 67 19.5 78 78 SE 7 11 29.91 1013 10 16.09344 0 0

Powered by AerisWeather